Weather History for Ludington, MI

Change the Weather History Date:

Friday, November 15, 2013

  Actual Average Record
Temperature  
Mean Temperature 46 °F -  
Max Temperature 50 °F 45 °F 63 °F (1953)
Min Temperature 41 °F 31 °F 5 °F (1959)
Degree Days  
Heating Degree Days 20    
Moisture  
Dew Point 36 °F    
Average Humidity 69    
Maximum Humidity 81    
Minimum Humidity 61    
Precipitation  
Precipitation 0.00 in - - ()
Sea Level Pressure  
Sea Level Pressure 29.91 in    
Wind  
Wind Speed 10 mph (SSW)    
Max Wind Speed 17 mph    
Max Gust Speed 23 mph    
Visibility 10 miles    
Events Rain    
Averages and records for this station are not official NWS values.
T = Trace of Precipitation, MM = Missing Value Source: NWS Daily Summary

Daily Weather History Graph

Daily Weather History Graph

Search for Another Location

Airport:

Trip Planner

Search our weather history database for the weather conditions in past years. The results will help you decide how hot, cold, wet, or windy it might be!

Date:

Astronomy

Nov. 15, 2013 Rise Set
Actual Time 7:40 AM EST 5:19 PM EST
Civil Twilight 7:09 AM EST 5:50 PM EST
Nautical Twilight 6:34 AM EST 6:25 PM EST
Astronomical Twilight 6:00 AM EST 6:59 PM EST
Moon 4:18 PM EST (11/15) 5:33 AM EST (11/15)
Length of Visible Light 10h 40m
Length of Day
9h 38m
Waxing Gibbous, 96% of the Moon is Illuminated
Nov 15
Waxing Gibbous
Nov 17
Full
Nov 25
Last Quarter
Dec 2
New
Dec 9
First Quarter

Hourly Weather History & Observations

Time (EST) Temp. Windchill Dew Point Humidity Pressure Visibility Wind Dir Wind Speed Gust Speed Precip Events Conditions
12:15 AM 48.0 °F - 35.6 °F 62% 29.89 in 10.0 mi SW 11.5 mph 16.1 mph N/A   Mostly Cloudy
12:35 AM 48.4 °F - 36.1 °F 63% 29.89 in 10.0 mi SW 10.4 mph - N/A   Overcast
12:55 AM 48.4 °F - 36.1 °F 63% 29.89 in 10.0 mi SW 9.2 mph - N/A   Overcast
1:15 AM 47.3 °F - 35.1 °F 62% 29.89 in 10.0 mi SW 12.7 mph 19.6 mph N/A   Overcast
1:35 AM 46.0 °F 41.0 °F 34.2 °F 63% 29.89 in 10.0 mi SW 10.4 mph - N/A   Overcast
1:55 AM 45.7 °F 41.0 °F 34.7 °F 65% 29.89 in 10.0 mi SW 9.2 mph - N/A   Drizzle
2:15 AM 45.1 °F 39.9 °F 34.7 °F 67% 29.89 in 10.0 mi SW 10.4 mph - N/A   Drizzle
2:35 AM 44.6 °F 39.2 °F 34.9 °F 69% 29.90 in 10.0 mi SW 10.4 mph - N/A Rain Rain
2:55 AM 43.9 °F 38.8 °F 35.6 °F 73% 29.90 in 10.0 mi SW 9.2 mph - N/A Rain Light Rain
3:15 AM 43.7 °F 38.6 °F 35.8 °F 74% 29.90 in 10.0 mi SW 9.2 mph - N/A   Drizzle
3:35 AM 43.9 °F 39.3 °F 35.6 °F 73% 29.89 in 10.0 mi SW 8.1 mph - N/A   Drizzle
3:55 AM 43.9 °F 38.3 °F 35.6 °F 73% 29.89 in 10.0 mi SW 10.4 mph - N/A Rain Rain
4:15 AM 43.5 °F 38.3 °F 35.6 °F 74% 29.88 in 10.0 mi SW 9.2 mph - N/A   Drizzle
4:35 AM 43.9 °F 38.3 °F 35.2 °F 72% 29.88 in 10.0 mi SW 10.4 mph - N/A   Overcast
4:55 AM 43.9 °F 39.9 °F 34.9 °F 71% 29.88 in 10.0 mi SSW 6.9 mph - N/A   Mostly Cloudy
5:15 AM 44.2 °F 39.2 °F 35.2 °F 71% 29.89 in 10.0 mi SW 9.2 mph - N/A   Mostly Cloudy
5:35 AM 43.9 °F 39.3 °F 34.9 °F 71% 29.88 in 10.0 mi SSW 8.1 mph - N/A   Mostly Cloudy
5:55 AM 44.2 °F 39.2 °F 34.9 °F 70% 29.89 in 10.0 mi SSW 9.2 mph - N/A   Mostly Cloudy
6:15 AM 44.6 °F 38.8 °F 35.1 °F 69% 29.89 in 10.0 mi SW 11.5 mph 16.1 mph N/A   Mostly Cloudy
6:35 AM 44.6 °F 38.8 °F 34.9 °F 69% 29.89 in 10.0 mi SW 11.5 mph 17.3 mph N/A   Mostly Cloudy
6:55 AM 44.2 °F 39.7 °F 35.1 °F 70% 29.89 in 10.0 mi SW 8.1 mph - N/A   Mostly Cloudy
7:15 AM 44.6 °F 38.4 °F 35.2 °F 70% 29.90 in 10.0 mi SW 12.7 mph - N/A   Mostly Cloudy
7:35 AM 44.6 °F 38.8 °F 35.1 °F 69% 29.90 in 10.0 mi SW 11.5 mph 17.3 mph N/A   Mostly Cloudy
7:55 AM 44.6 °F 39.2 °F 35.6 °F 71% 29.91 in 10.0 mi SW 10.4 mph - N/A   Mostly Cloudy
8:15 AM 45.0 °F 39.3 °F 35.1 °F 68% 29.92 in 10.0 mi SW 11.5 mph - N/A   Mostly Cloudy
8:35 AM 45.0 °F 40.1 °F 35.1 °F 68% 29.92 in 10.0 mi SW 9.2 mph 17.3 mph N/A   Mostly Cloudy
8:55 AM 46.6 °F - 36.3 °F 67% 29.92 in 10.0 mi SW 10.4 mph - N/A   Mostly Cloudy
9:15 AM 45.7 °F 41.0 °F 36.1 °F 69% 29.92 in 10.0 mi SSW 9.2 mph - N/A   Mostly Cloudy
9:35 AM 45.9 °F 40.8 °F 36.5 °F 70% 29.92 in 10.0 mi SW 10.4 mph 17.3 mph N/A   Mostly Cloudy
9:55 AM 45.9 °F 40.4 °F 36.0 °F 68% 29.92 in 10.0 mi SSW 11.5 mph - N/A   Scattered Clouds
10:15 AM 48.4 °F - 36.9 °F 64% 29.92 in 10.0 mi SSW 11.5 mph 16.1 mph N/A   Clear
10:35 AM 50.9 °F - 39.0 °F 64% 29.93 in 10.0 mi SSW 12.7 mph 16.1 mph N/A   Clear
10:55 AM 49.5 °F - 38.1 °F 65% 29.93 in 10.0 mi South 12.7 mph - N/A   Mostly Cloudy
11:15 AM 50.5 °F - 39.2 °F 65% 29.93 in 10.0 mi SSW 11.5 mph 18.4 mph N/A   Mostly Cloudy
11:35 AM 50.9 °F - 39.2 °F 64% 29.94 in 10.0 mi SSW 11.5 mph 20.7 mph N/A   Clear
11:55 AM 50.9 °F - 38.3 °F 62% 29.94 in 10.0 mi SW 17.3 mph - N/A   Clear
12:15 PM 50.9 °F - 38.1 °F 62% 29.93 in 10.0 mi SW 12.7 mph - N/A   Clear
12:35 PM 50.9 °F - 38.3 °F 62% 29.92 in 10.0 mi SSW 13.8 mph 19.6 mph N/A   Clear
12:55 PM 50.9 °F - 38.3 °F 62% 29.92 in 10.0 mi SW 12.7 mph 17.3 mph N/A   Clear
1:15 PM 50.9 °F - 38.5 °F 62% 29.91 in 10.0 mi SW 11.5 mph 18.4 mph N/A   Clear
1:35 PM 50.9 °F - 38.3 °F 62% 29.92 in 10.0 mi SW 9.2 mph - N/A   Clear
1:55 PM 50.9 °F - 37.9 °F 61% 29.92 in 10.0 mi SW 13.8 mph - N/A   Scattered Clouds
2:15 PM 50.9 °F - 38.1 °F 62% 29.91 in 10.0 mi SSW 10.4 mph - N/A   Scattered Clouds
2:35 PM 50.9 °F - 38.3 °F 62% 29.91 in 10.0 mi SW 10.4 mph - N/A   Clear
2:55 PM 50.9 °F - 39.2 °F 64% 29.90 in 10.0 mi SW 12.7 mph - N/A   Clear
3:15 PM 50.9 °F - 39.4 °F 65% 29.90 in 10.0 mi SW 10.4 mph - N/A   Clear
3:35 PM 50.9 °F - 39.2 °F 64% 29.90 in 10.0 mi SW 10.4 mph - N/A   Clear
3:55 PM 50.9 °F - 39.4 °F 65% 29.91 in 10.0 mi SW 12.7 mph 16.1 mph N/A   Clear
4:15 PM 50.4 °F - 38.8 °F 65% 29.91 in 10.0 mi SW 12.7 mph 19.6 mph N/A   Clear
4:35 PM 48.4 °F - 36.5 °F 64% 29.91 in 10.0 mi SSW 15.0 mph 23.0 mph N/A   Clear
4:55 PM 47.3 °F - 36.1 °F 65% 29.91 in 10.0 mi SSW 9.2 mph - N/A   Clear
5:14 PM 45.7 °F 39.8 °F 36.0 °F 69% 29.92 in 10.0 mi SSW 12.7 mph 16.1 mph N/A   Clear
5:35 PM 44.6 °F 39.2 °F 35.6 °F 71% 29.92 in 10.0 mi SSW 10.4 mph - N/A   Clear
5:55 PM 44.4 °F 40.0 °F 35.6 °F 71% 29.93 in 10.0 mi South 8.1 mph - N/A   Clear
6:15 PM 43.7 °F 39.7 °F 35.6 °F 73% 29.93 in 10.0 mi South 6.9 mph - N/A   Clear
6:35 PM 43.3 °F 38.6 °F 35.1 °F 73% 29.93 in 10.0 mi South 8.1 mph - N/A   Clear
6:55 PM 43.3 °F 39.2 °F 35.2 °F 73% 29.93 in 10.0 mi South 6.9 mph - N/A   Clear
7:15 PM 42.4 °F 38.1 °F 34.7 °F 74% 29.93 in 10.0 mi South 6.9 mph - N/A   Clear
7:35 PM 42.1 °F 37.7 °F 34.3 °F 74% 29.93 in 10.0 mi South 6.9 mph - N/A   Clear
7:55 PM 42.4 °F 37.5 °F 34.9 °F 75% 29.94 in 10.0 mi South 8.1 mph - N/A   Clear
8:15 PM 42.1 °F 37.7 °F 34.7 °F 75% 29.94 in 10.0 mi South 6.9 mph - N/A   Clear
8:35 PM 42.1 °F 37.7 °F 34.9 °F 76% 29.94 in 10.0 mi SSE 6.9 mph - N/A   Clear
8:55 PM 42.1 °F 37.7 °F 34.9 °F 76% 29.94 in 10.0 mi SSE 6.9 mph - N/A   Clear
9:15 PM 42.1 °F 37.7 °F 34.7 °F 75% 29.94 in 10.0 mi SSE 6.9 mph - N/A   Clear
9:35 PM 42.6 °F 37.2 °F 35.2 °F 75% 29.94 in 10.0 mi SSE 9.2 mph - N/A   Clear
9:55 PM 42.1 °F 37.7 °F 35.1 °F 76% 29.93 in 10.0 mi SSE 6.9 mph - N/A   Clear
10:15 PM 42.1 °F 38.4 °F 35.6 °F 78% 29.93 in 10.0 mi SSE 5.8 mph - N/A   Clear
10:35 PM 42.1 °F 37.7 °F 35.8 °F 78% 29.94 in 10.0 mi SSE 6.9 mph - N/A   Clear
10:55 PM 42.1 °F 39.2 °F 35.8 °F 78% 29.95 in 10.0 mi SSE 4.6 mph - N/A   Clear
11:15 PM 41.7 °F 37.3 °F 35.8 °F 79% 29.94 in 10.0 mi SSE 6.9 mph - N/A   Clear
11:35 PM 42.4 °F 38.1 °F 36.3 °F 79% 29.94 in 10.0 mi South 6.9 mph - N/A   Clear
11:55 PM 42.1 °F 38.4 °F 36.5 °F 81% 29.94 in 10.0 mi South 5.8 mph - N/A   Clear